Regional Weather Roundup
Issued by NWS Newport/Morehead, NC

Current Version | Previous Version | Text Only | Print | Product List | Glossary On
Versions: 1 2 3 4 5 6 7 8 9 10 11 12 13 14 15 16 17 18 19 20 21 22 23 24 25 26 27 28 29 30 31 32 33 34 35 36 37 38 39 40 41 42 43 44 45 46 47 48 49 50
000
ASUS42 KMHX 220013
RWRMHX
WEATHER ROUNDUP FOR EASTERN NORTH CAROLINA
NATIONAL WEATHER SERVICE NEWPORT/MOREHEAD CITY NC
800 PM EDT THU SEP 21 2017

NOTE: "FAIR" INDICATES FEW OR NO CLOUDS BELOW 12,000 FEET
WITH NO SIGNIFICANT WEATHER AND/OR OBSTRUCTIONS TO VISIBILITY

NCZ015>017-031-032-045>047-102-103-220100-
NORTH COAST

CITY           SKY/WX    TMP DP  RH WIND       PRES   REMARKS
EDENTON        CLEAR     75  69  80 CALM      30.01S
ELIZABETH CITY CLEAR     75  68  78 E6        30.01R
KITTY HAWK     CLEAR     71  64  76 CALM      30.00R
MANTEO         NOT AVBL

$$

NCZ045>047-081-094-103-104-220100-
CENTRAL COAST

CITY           SKY/WX    TMP DP  RH WIND       PRES   REMARKS
FRISCO         CLEAR     74  69  85 E6        30.01R

$$

NCZ095-097-098-100-101-220100-
SOUTHERN COAST

CITY           SKY/WX    TMP DP  RH WIND       PRES   REMARKS
BEAUFORT       PTCLDY    75  70  84 NW8       30.00R
CEDAR ISLAND   NOT AVBL
JACKSONVILLE   PTCLDY    71  70  96 CALM      30.00R
PINEY ISLAND     N/A    N/A N/A N/A SE3       30.00R
WILMINGTON     CLOUDY    70  67  90 SW6       29.99F


$$

NCZ011>013-027>030-043-044-078>080-089-090>093-098-220100-
COASTAL PLAIN

CITY           SKY/WX    TMP DP  RH WIND       PRES   REMARKS
AHOSKIE        PTCLDY    72  70  93 CALM      30.00S
CLINTON        PTCLDY    71  69  95 CALM      30.01S
ELIZABETHTOWN  NOT AVBL
GOLDSBORO      CLEAR     72  72 100 SW3       29.99S
GREENVILLE     CLEAR     73  72  94 CALM      30.02R
HAVELOCK       CLOUDY    72  68  87 W3        30.01R
KENANSVILLE    MOCLDY    70  68  94 CALM      30.00F
KINSTON        CLOUDY    72  68  88 CALM      30.01S
NEW BERN       MOCLDY    70  69  97 CALM      30.01R
RICHLANDS      CLOUDY    69  68  96 NE5       30.01R
ROCKY MOUNT    CLEAR     71  71 100 CALM      30.01R FOG
WASHINGTON     PTCLDY    74  70  86 CALM      30.01R
WHITEVILLE     MOCLDY    70  68  94 CALM      30.01F

$$

AMZ130-135-150-152-154-156-158-170-250-252-270-ANZ085-086-088-633-658-670-220100-
MARINE OBSERVATIONS

STATION/POSITION TIME  TEMP    WIND        PRES    WAVE   SWELL
                       AIR SEA DIR/SP/G            HT/PER HT/PER
                 (UTC) (F)     (DEG/KT/KT) (MB)    (FT/S) (FT/S)
CHESAPEAKE LIGHT NOT AVBL
64 E VA BEACH    2350   71 71   20/  6/ 10 1016.4    7/11   7/11
DUCK             2348   75 76   60/ 11/ 11 1015.9
2 E DUCK         0000      76                N/A     4/11   2/11
OREGON INLET     2348           20/  6/  8 1016.0
13E OREGON INLT  2348      75                N/A     5/10   5/10
HATTERAS CG      2348   75 78   80/  5/  6 1016.1
DIAMOND BUOY     2350   75 76   50/ 10/ 12 1015.8    5/11   5/11
CAPE LOOKOUT     0000   78     270/  2/  3 1015.4
BEAUFORT LAB     2348   77 77  300/  5/  5 1015.3
30 SE NEW RVR IN 2308   78     350/  8/ 12 1015.8
30 SE NEW RVR IN NOT AVBL
27 SE WRIGHTSVLE 2308   77 81  360/ 16/ 21 1015.8
5 SE WRIGHTSVLE  2308   72 78  320/  4/  6 1015.4
225 S CAPE HAT   2350   79 83   CALM  /  2 1015.2    4/ 9   5/ 9
41 SE CHARLESTON 0000   81 82  190/  4/  4 1015.1

$$




USA.gov is the U.S. government's official web portal to all federal, state and local government web resources and services.